Location: Newark
(34.6283°N, 36.0776°E)
Time: 23:37:33
(UTC+00:00)

S-56A Canister/Altair - Pass Details

Date: 19 October 2019
Orbit: 634 x 2498 km, 38.9° (Epoch: 11 November)

Event Time Altitude Azimuth Distance (km) Brightness Sun altitude
Rises 04:46:39 0° 289° (WNW) 4,419 10.7 11.5°
Reaches altitude 10° 04:49:12 10° 289° (WNW) 3,659 10.4 12.0°
Maximum altitude 04:59:12 88° 203° (SSW) 1,981 9.9 13.9°
Drops below altitude 10° 05:13:31 10° 114° (ESE) 5,051 14.6 16.6°
Sets 05:17:42 0° 114° (ESE) 6,143 13.9 17.4°
